Tracking 21045 objects as of 4-Aug-2020
HD Live streaming from Space Station
objects crossing your sky now

IRIDIUM 145

Track IRIDIUM 145 now!
10-day predictions
IRIDIUM 145 is classified as:


NORAD ID: 43253
Int'l Code: 2018-030G
Perigee: 782.4 km
Apogee: 787.2 km
Inclination: 86.4 °
Period: 100.4 minutes
Semi major axis: 7155 km
RCS: Unknown
Launch date: March 30, 2018
Source: United States (US)
Launch site: AIR FORCE WESTERN TEST RANGE (AFWTR)
aabbcc
Your satellite tracking list
Your tracking list is empty




NASA's NSSDC Master Catalog

Two Line Element Set (TLE):
1 43253U 18030E   20217.25248750 +.00000054 +00000-0 +12150-4 0  9996
2 43253 086.3962 105.9981 0003402 069.3691 290.7870 14.34219061122974
Source of the keplerian elements: AFSPC